Regional Weather Roundup
Issued by NWS Newport/Morehead, NC

Current Version | Previous Version | Graphics & Text | Print | Product List | Glossary On
Versions: 1 2 3 4 5 6 7 8 9 10 11 12 13 14 15 16 17 18 19 20 21 22 23 24 25 26 27 28 29 30 31 32 33 34 35 36 37 38 39 40 41 42 43 44 45 46 47 48 49 50
000 ASUS42 KMHX 222010 RWRMHX WEATHER ROUNDUP FOR EASTERN NORTH CAROLINA NATIONAL WEATHER SERVICE NEWPORT/MOREHEAD CITY NC 400 PM EDT WED OCT 22 2014 NOTE: "FAIR" INDICATES FEW OR NO CLOUDS BELOW 12,000 FEET WITH NO SIGNIFICANT WEATHER AND/OR OBSTRUCTIONS TO VISIBILITY NCZ015>017-031-032-045>047-102-103-222100- NORTH COAST CITY SKY/WX TMP DP RH WIND PRES REMARKS EDENTON CLOUDY 56 51 82 NW13G25 29.88S ELIZABETH CITY CLOUDY 59 50 72 NW15G24 29.84R KITTY HAWK CLOUDY 59 52 77 NW10G20 29.80R MANTEO CLOUDY 58 51 78 NW14G22 29.82S $$ NCZ045>047-081-094-103-104-222100- CENTRAL COAST CITY SKY/WX TMP DP RH WIND PRES REMARKS FRISCO CLOUDY 58 51 78 NW13G25 29.85S SWANQUARTER N/A 61 N/A N/A NW14G26 29.82F $$ NCZ095-097-098-100-101-222100- SOUTHERN COAST CITY SKY/WX TMP DP RH WIND PRES REMARKS BEAUFORT PTSUNNY 64 49 57 NW17G28 29.90S CEDAR ISLAND N/A 61 N/A N/A W26G32 29.91S JACKSONVILLE PTSUNNY 66 46 48 NW17G24 29.93R PINEY ISLAND CLOUDY 63 48 58 W17G26 29.88F WILMINGTON PTSUNNY 67 44 43 NW16G22 29.94S $$ NCZ011>013-027>030-043-044-078>080-089-090>093-098-222100- COASTAL PLAIN CITY SKY/WX TMP DP RH WIND PRES REMARKS AHOSKIE PTSUNNY 59 47 65 N8G23 29.91S CLINTON PTSUNNY 67 47 48 N8 29.96S ELIZABETHTOWN PTSUNNY 67 44 43 N6 29.96S GOLDSBORO PTSUNNY 67 48 51 NW13G21 29.92F GREENVILLE CLOUDY 61 46 59 N8G17 29.95S HAVELOCK PTSUNNY 63 47 55 NW16 29.92R KENANSVILLE MOSUNNY 65 44 46 N9 29.96R KINSTON PTSUNNY 63 48 59 N9 29.95R NEW BERN CLOUDY 63 46 54 NW14G24 29.93R RICHLANDS CLOUDY 64 45 48 NW12 29.95S ROCKY MOUNT CLOUDY 64 46 52 NW8 29.93F WASHINGTON PTSUNNY 58 48 68 NW13G18 29.92R WHITEVILLE MOSUNNY 68 44 41 NW7 29.96S $$ AMZ130-135-150-152-154-156-158-170-250-252-270-ANZ085-086-088-633-658-670-222100- MARINE OBSERVATIONS STATION/POSITION TIME TEMP WIND PRES WAVE SWELL AIR SEA DIR/SP/G HT/PER HT/PER (UTC) (F) (DEG/KT/KT) (MB) (FT/S) (FT/S) CHESAPEAKE LIGHT 1900 60 320/ 30/ 35 1008.5 64 E VA BEACH 2000 61 69 330/ 17/ 21 1005.5 5/ 6 2/10 DUCK 2000 60 68 310/ 21/ 27 1008.3 2 E DUCK 1900 N/A 4/ 5 10 NE DUCK 2000 70 N/A 5/ 5 OREGON INLET 2000 59 66 280/ 20/ 25 1009.3 13E OREGON INLT 2000 73 N/A 5/ 5 2/11 HATTERAS CG 2000 59 68 300/ 24/ 26 1011.2 DIAMOND BUOY 2000 62 300/ 25/ 31 1010.1 5/ 5 2/10 17 S OCRACOKE NOT AVBL CAPE LOOKOUT 1900 62 320/ 17/ 20 1012.3 BEAUFORT LAB 2000 62 69 320/ 12/ 20 1011.8 30 SE NEW RIVER 2000 65 76 330/ 19/ 25 1012.4 3/ 4 5 SE WRIGHTSVLE 2000 63 73 330/ 19/ 23 N/A 225 S CAPE HAT 1921 73 79 300/ 21/ 27 1011.3 6/ 6 2/10 41 SE CHARLESTON 2000 64 79 330/ 8/ 12 1015.3 4/ 6 3/ 6 $$

USA.gov is the U.S. government's official web portal to all federal, state and local government web resources and services.